Location: Kerberlivit
(48.2787°N, 4.5413°W)
Time: 19:31:02
(UTC+00:00)

USA 215 - Pass Details

Date: 18 February 2020
Orbit: 1098 x 1110 km, 123.0° (Epoch: 08 March)

Event Time Altitude Azimuth Distance (km) Brightness Sun altitude
Rises 04:13:42 0° 58° (ENE) 3,923 7.2 -31.5°
Reaches altitude 10° 04:16:14 10° 55° (NE) 2,965 6.3 -31.1°
Maximum altitude 04:22:34 55° 340° (NNW) 1,306 3.5 -30.1°
Enters shadow 04:22:54 55° 328° (NNW) 1,313 3.5 -30.1°
